{"data":{"norad_id":56803,"intl_designator":"2023-078AN","name":"STARLINK-6029","alt_names":[],"object_type":"PAYLOAD","status":"ACTIVE","operator":null,"country":"US","launch_date":"2023-05-31","launch_site_code":"AFWTR","launch_vehicle":null,"mission":null,"orbit_class":"UNKNOWN","rcs_meters":null,"size_class":null,"mass_kg":null,"dimensions":null,"purposes":["comms"],"wikipedia_slug":null,"has_3d_model":false,"image_url":null,"decayed_at":null,"tle_current":{"epoch":"2026-05-25T03:33:46.983744Z","epoch_age_seconds":62233,"freshness":"FRESH","line1":"1 56803U 23078AN  26145.14846046  .00000426  00000+0  43499-4 0  9997","line2":"2 56803  69.9984 151.6506 0003684 267.9893  92.0844 14.98320315164136","mean_motion":14.98320315,"eccentricity":0.0003684,"inclination_deg":69.9984,"raan_deg":151.6506,"arg_perigee_deg":267.9893,"mean_anomaly_deg":92.0844,"bstar":4.3499e-5,"rev_number":16413,"period_min":96.107620352194,"perigee_km":569.52537907464,"apogee_km":574.64630326401,"semimajor_km":6950.2228411693,"source":"CELESTRAK","updated_at":"2026-05-25T13:38:18.158690Z"}}}